Regional Weather Roundup
Issued by NWS Goodland, KS

Home | Current Version | Previous Version | Graphics & Text | Print | Product List | Glossary On
Versions: 1 2 3 4 5 6 7 8 9 10 11 12 13 14 15 16 17 18 19 20 21 22 23 24 25 26 27 28 29 30 31 32 33 34 35 36 37 38 39 40 41 42 43 44 45 46 47 48 49 50
000
ASUS43 KGLD 050159
RWRGLD

GOODLAND FORECAST AREA HOURLY WEATHER ROUNDUP
NATIONAL WEATHER SERVICE GOODLAND KS
800 PM MDT TUE AUG 04 2015

...OFFICIAL OBSERVATIONS...

CITY           SKY/WX    TMP DP  RH WIND       PRES   REMARKS
GOODLAND KS    PTCLDY    71  64  78 SE6       30.01R
HILL CITY KS   CLOUDY    67  65  93 E6        29.96R
IMPERIAL NEB   MOCLDY    69  63  81 NE7       29.98R
MCCOOK NEB     CLOUDY    65  63  93 NW6       29.97R
AKRON CO       PTCLDY    71  57  61 SE8       30.06R
BURLINGTON CO  CLEAR     73  58  59 E9        30.04R
LIMON CO       CLEAR     70  55  59 SE6       30.11R
$$

...UNOFFICIAL OBSERVATIONS...

CITY           SKY/WX    TMP DP  RH WIND       PRES   REMARKS
COLBY KS       CLEAR     72  70  94 E6        30.01R
NORTON KS      CLOUDY    64  61  88 CALM      29.95S
SHARON SPRINGS   N/A     76  65  70 NE14        N/A
KIT CARSON CO    N/A     77  56  48 MISG        N/A
YUMA CO          N/A     71  60  69 CALM        N/A
$$



USA.gov is the U.S. government's official web portal to all federal, state and local government web resources and services.